Destin, Florida, United States (32540)
Lat: 30.39N, Lon: 86.5W
Wx Zone: FLZ006
Local Info
Past Weather Observations for Monday, April 21, 2014

NOTE: This archive is for the closest National Weather Service station to Destin. Information may differ from the station used for current weather conditions.

Time Weather Temperature Dewpoint Humidity Pressure Winds Precip Visibility
23:53
Clear
64°F / 18°C 61°F / 16°C 88% 30.01 in
(1016 mb)
Calm - 10SM
22:53
Clear
64°F / 18°C 61°F / 16°C 88% 30.01 in
(1016 mb)
Variable 3.5 mph
(Variable 6 kph)
- 10SM
21:53
Clear
66°F / 19°C 61°F / 16°C 83% 30.01 in
(1016 mb)
Variable 3.5 mph
(Variable 6 kph)
- 10SM
20:53
Clear
66°F / 19°C 61°F / 16°C 83% 30.04 in
(1017 mb)
Variable 4.6 mph
(Variable 7 kph)
- 10SM
19:53
Clear
66°F / 19°C 61°F / 16°C 83% 30.04 in
(1017 mb)
Variable 5.8 mph
(Variable 9 kph)
- 10SM
18:53
Clear
68°F / 20°C 59°F / 15°C 73% 30.01 in
(1016 mb)
Calm - 10SM
17:53
Clear
70°F / 21°C 57°F / 14°C 64% 30.01 in
(1016 mb)
SSW 6.9 mph
(SSW 11 kph)
- 10SM
16:53
Clear
70°F / 21°C 57°F / 14°C 64% 30.04 in
(1017 mb)
SSW 8.1 mph
(SSW 13 kph)
- 10SM
15:53
Clear
72°F / 22°C 57°F / 14°C 61% 30.04 in
(1017 mb)
SSW 8.1 mph
(SSW 13 kph)
- 10SM
14:53
Clear
72°F / 22°C 55°F / 13°C 57% 30.04 in
(1017 mb)
SSW 10.4 mph
(SSW 17 kph)
- 10SM
13:53
Clear
72°F / 22°C 57°F / 14°C 61% 30.06 in
(1018 mb)
SSW 9.2 mph
(SSW 15 kph)
- 10SM
12:53
Clear
72°F / 22°C 55°F / 13°C 57% 30.09 in
(1019 mb)
SSE 6.9 mph
(SSE 11 kph)
- 10SM
11:53
Clear
72°F / 22°C 57°F / 14°C 61% 30.12 in
(1020 mb)
Variable 6.9 mph
(Variable 11 kph)
- 10SM
10:53
Clear
70°F / 21°C 55°F / 13°C 60% 30.12 in
(1020 mb)
S 6.9 mph
(S 11 kph)
- 10SM
09:53
Clear
70°F / 21°C 55°F / 13°C 60% 30.15 in
(1021 mb)
Calm - 10SM
08:53
Clear
68°F / 20°C 57°F / 14°C 69% 30.15 in
(1021 mb)
Calm - 10SM
07:53
Clear
64°F / 18°C 55°F / 13°C 73% 30.18 in
(1022 mb)
N 4.6 mph
(N 7 kph)
- 10SM
06:53
Clear
61°F / 16°C 57°F / 14°C 88% 30.18 in
(1022 mb)
N 4.6 mph
(N 7 kph)
- 10SM
05:53
Clear
57°F / 14°C 55°F / 13°C 94% 30.15 in
(1021 mb)
Calm - 10SM
04:53
Clear
55°F / 13°C 52°F / 11°C 88% 30.12 in
(1020 mb)
N 3.5 mph
(N 6 kph)
- 10SM
03:53
Clear
57°F / 14°C 54°F / 12°C 88% 30.12 in
(1020 mb)
Calm - 10SM
02:53
Clear
Fog And Mist
55°F / 13°C 54°F / 12°C 94% 30.12 in
(1020 mb)
Calm - 6SM
01:53
Clear
55°F / 13°C 52°F / 11°C 88% 30.12 in
(1020 mb)
Calm - 10SM
00:53
Clear
Fog And Mist
55°F / 13°C 54°F / 12°C 94% 30.12 in
(1020 mb)
Calm - 6SM
00:46
Clear
Fog And Mist
55°F / 13°C 54°F / 12°C 94% 30.12 in
(1020 mb)
Calm - 2 1/2SM
Time Weather Temperature Dewpoint Humidity Pressure Winds Precip Visibility


Weather for websites

WeatherForYou.com, LLC is not responsible for any damages or problems caused by this service. Current weather conditions are obtained from the closest station including government and personal stations which may have varying degrees of accuracy. Weather forecasts are derived from the NOAA NDFD. Like all things, this site belongs to Jesus Christ... He just trusts me to maintain it. If you have any questions or comments email webmaster@weatherforyou.com

Copyright © 2014, WeatherForYou.com LLC. All rights reserved.